This is the latest recevied weather packets stored in our database for station/object K6POO-1. If no packets are shown the sender has not sent any weather packets the latest 10 day(s).
| Time | Temp. | Humidity | Pressure | Rain* | Wind** | Luminosity | Snow |
|---|---|---|---|---|---|---|---|
| 1778019999 | 16.67° C | 68% | 1016.2 hPa | 0 mm | - | 445 W/m² | - |
| 1778019695 | 16.67° C | 68% | 1016 hPa | 0 mm | - | 499 W/m² | - |
| 1778019392 | 16.67° C | 68% | 1016 hPa | 0 mm | - | 542 W/m² | - |
| 1778019088 | 16.67° C | 68% | 1016 hPa | 0 mm | - | 657 W/m² | - |
| 1778018786 | 16.67° C | 68% | 1016 hPa | 0 mm | - | 537 W/m² | - |
| 1778018483 | 17.22° C | 68% | 1016.1 hPa | 0 mm | - | 802 W/m² | - |
| 1778018181 | 16.67° C | 68% | 1016.1 hPa | 0 mm | - | 785 W/m² | - |
| 1778017879 | 16.67° C | 69% | 1016.2 hPa | 0 mm | - | 867 W/m² | - |
| 1778017577 | 16.67° C | 69% | 1016.2 hPa | 0 mm | - | 589 W/m² | - |
| 1778017274 | 16.67° C | 68% | 1016.4 hPa | 0 mm | - | 537 W/m² | - |
| 1778016972 | 16.67° C | 69% | 1016.3 hPa | 0 mm | - | 498 W/m² | - |
| 1778016668 | 16.67° C | 68% | 1016.3 hPa | 0 mm | - | 486 W/m² | - |
| 1778016364 | 16.11° C | 70% | 1016.2 hPa | 0 mm | - | 503 W/m² | - |
| 1778016063 | 16.67° C | 68% | 1016.2 hPa | 0 mm | - | 500 W/m² | - |
| 1778015758 | 16.67° C | 67% | 1016.4 hPa | 0 mm | - | 554 W/m² | - |
| 1778015455 | 16.67° C | 67% | 1016.4 hPa | 0 mm | - | 720 W/m² | - |
| 1778015152 | 16.67° C | 67% | 1016.5 hPa | 0 mm | - | 626 W/m² | - |
| 1778014849 | 16.67° C | 66% | 1016.2 hPa | 0 mm | - | 570 W/m² | - |
| 1778014547 | 16.67° C | 67% | 1016.4 hPa | 0 mm | - | 1182 W/m² | - |
| 1778014244 | 17.22° C | 67% | 1016.4 hPa | 0 mm | - | 1143 W/m² | - |
| 1778013941 | 16.67° C | 66% | 1016.6 hPa | 0 mm | - | 1198 W/m² | - |
| 1778013638 | 16.67° C | 67% | 1016.4 hPa | 0 mm | - | 928 W/m² | - |
| 1778013330 | 16.11° C | 68% | 1016.2 hPa | 0 mm | - | 903 W/m² | - |
| 1778013027 | 16.11° C | 67% | 1016.5 hPa | 0 mm | - | 617 W/m² | - |
| 1778012723 | 16.67° C | 65% | 1016.5 hPa | 0 mm | - | 583 W/m² | - |
* Rain latest hour (hover to see other rain measurements)
** Current wind speed in m/s (hover to see current wind gust speed)